Hourly Data Report for October 05, 2013

All times are specified in Local Standard Time (LST). Add 1 hour to adjust for Daylight Saving Time where and when it is observed.

PANGNIRTUNG
NUNAVUT

66°08'36.300" N
65°42'40.500" W
22.60 m
2403049
71826
WXP

Download Data

Hourly Data (October 2013)
Hourly Data Report for October 5, 2013
Temp Definition
°C
Dew Point Temp Definition
°C
Rel Hum Definition
%
Wind Dir Definition
10's deg

Wind Spd Definition
km/h
Visibility Definition
km
Stn Press Definition
kPa
Hmdx Definition


Wind Chill Definition


Weather Definition


TIME
00:00 -1.7 -5.3 76 9 4   101.04   -3 LegendNANA
01:00 -1.9 -5.8 75 14 2   101.06   -3 LegendNANA
02:00 -2.0 -5.6 76 15 2   101.07   -3 LegendNANA
03:00 -1.9 -5.5 76 10 2   101.08   -3 LegendNANA
04:00 -2.4 -5.7 78 6 2   101.09   -3 LegendNANA
05:00 -2.4 -5.5 79 14 2   101.11   -3 LegendNANA
06:00 -2.5 -6.2 76 8 4   101.14   -4 LegendNANA
07:00 -2.3 -6.3 74 8 2   101.15   -3 LegendNANA
08:00 -1.9 -7.0 68 3 6   101.17   -4 LegendNANA
09:00 -1.9 -6.9 69 3 7   101.18   -5 LegendNANA
10:00 -1.7 -6.8 68 2 7   101.18   -4 LegendNANA
11:00 -1.4 -6.4 69 36 2   101.18   -2 LegendNANA
12:00 -1.7 -3.7 86 24 22   101.19   -8 LegendNANA
13:00 -2.0 -4.1 86 25 22   101.22   -8 LegendNANA
14:00 -2.3 -4.6 84 24 22   101.23   -8 LegendNANA
15:00 -2.5 -4.9 84 24 22   101.26   -9 LegendNANA
16:00 -2.7 -5.1 84 24 20   101.29   -9 LegendNANA
17:00 -2.9 -5.4 83 24 19   101.32   -9 LegendNANA
18:00 -2.9 -5.5 82 24 17   101.32   -8 LegendNANA
19:00 -2.9 -6.0 79 24 17   101.34   -8 LegendNANA
20:00 -2.9 -5.8 80 24 17   101.35   -8 LegendNANA
21:00 -3.0 -5.9 80 24 13   101.35   -8 LegendNANA
22:00 -2.9 -7.1 73 22 9   101.36   -6 LegendNANA
23:00 -3.5 -6.1 82 25 17   101.38   -9 LegendNANA

Notes on Data Quality.

Legend

  • E = Estimated
  • M = Missing
  • NA = Not Available
  • ‡ = Partner data that is not subject to review by the National Climate Archives
Date modified: